TimeEDT,TemperatureF,Dew PointF,Humidity,Sea Level PressureIn,VisibilityMPH,Wind Direction,Wind SpeedMPH,Gust SpeedMPH,PrecipitationIn,Events,Conditions,WindDirDegrees,DateUTC
12:54 AM,41.0,32.0,70,30.09,10.0,West,4.6,-,N/A,,Partly Cloudy,260,2013-03-27 04:54:00
1:54 AM,42.1,28.9,60,30.10,10.0,WNW,6.9,-,N/A,,Clear,290,2013-03-27 05:54:00
2:54 AM,39.9,28.9,65,30.09,10.0,WNW,8.1,-,N/A,,Clear,300,2013-03-27 06:54:00
3:54 AM,37.9,28.0,68,30.09,10.0,West,4.6,-,N/A,,Clear,280,2013-03-27 07:54:00
4:54 AM,37.0,28.0,70,30.10,10.0,West,6.9,-,N/A,,Clear,280,2013-03-27 08:54:00
5:54 AM,37.0,28.0,70,30.12,10.0,WNW,5.8,-,N/A,,Clear,290,2013-03-27 09:54:00
6:54 AM,36.0,27.0,70,30.14,10.0,West,6.9,-,N/A,,Clear,280,2013-03-27 10:54:00
7:54 AM,37.0,28.0,70,30.15,10.0,WNW,4.6,-,N/A,,Clear,300,2013-03-27 11:54:00
8:54 AM,42.1,28.9,60,30.17,10.0,NW,9.2,-,N/A,,Clear,310,2013-03-27 12:54:00
9:54 AM,46.0,28.9,51,30.18,10.0,NNW,12.7,-,N/A,,Clear,340,2013-03-27 13:54:00
10:54 AM,48.0,27.0,44,30.17,10.0,NNW,10.4,-,N/A,,Clear,340,2013-03-27 14:54:00
11:54 AM,51.1,25.0,36,30.16,10.0,WNW,12.7,-,N/A,,Clear,300,2013-03-27 15:54:00
12:54 PM,54.0,25.0,33,30.14,10.0,Variable,5.8,-,N/A,,Partly Cloudy,0,2013-03-27 16:54:00
1:54 PM,55.0,23.0,29,30.13,10.0,West,13.8,23.0,N/A,,Clear,270,2013-03-27 17:54:00
2:54 PM,55.9,24.1,29,30.12,10.0,West,12.7,18.4,N/A,,Scattered Clouds,270,2013-03-27 18:54:00
3:54 PM,57.0,24.1,28,30.10,10.0,WNW,10.4,18.4,N/A,,Partly Cloudy,300,2013-03-27 19:54:00
4:54 PM,55.9,23.0,28,30.10,10.0,WNW,12.7,25.3,N/A,,Mostly Cloudy,290,2013-03-27 20:54:00
5:54 PM,55.0,23.0,29,30.12,10.0,NNW,12.7,20.7,N/A,,Mostly Cloudy,330,2013-03-27 21:54:00
6:54 PM,53.1,21.9,30,30.13,10.0,NNW,9.2,-,N/A,,Scattered Clouds,330,2013-03-27 22:54:00
7:54 PM,50.0,24.1,36,30.14,10.0,NNW,5.8,-,N/A,,Partly Cloudy,330,2013-03-27 23:54:00
8:54 PM,46.9,24.1,41,30.17,10.0,NNW,5.8,-,N/A,,Mostly Cloudy,330,2013-03-28 00:54:00
9:54 PM,46.0,24.1,42,30.19,10.0,WNW,5.8,-,N/A,,Clear,300,2013-03-28 01:54:00
10:54 PM,44.1,25.0,47,30.20,10.0,WNW,4.6,-,N/A,,Clear,290,2013-03-28 02:54:00
11:54 PM,42.1,24.1,49,30.21,10.0,WNW,5.8,-,N/A,,Clear,300,2013-03-28 03:54:00